Location: Climax
(33.2048°N, 96.4497°W)
Time: 11:49:00
(UTC+00:00)

Cosmos 1805 Rocket - Pass Details

Date: 07 July 2022
Orbit: 605 x 629 km, 82.5° (Epoch: 12 August)

Event Time Altitude Azimuth Distance (km) Brightness Sun altitude
Exits shadow 08:15:14 15° 100° (E) 1,677 5.9 -28.9°
Maximum altitude 08:16:02 16° 87° (E) 1,641 6.0 -28.8°
Drops below altitude 10° 08:18:40 10° 50° (NE) 1,986 7.0 -28.6°
Sets 08:21:38 0° 29° (NNE) 2,891 8.3 -28.3°
